Location: Newark
(52.2583°N, 7.1190°W)
Time: 02:02:15
(UTC+00:00)

A-11 Canister half - Visible Passes

Search period start: 16 November 2019 00:00
Search period end: 26 November 2019 00:00
Orbit: 1527 x 1682 km, 47.3° (Epoch: 14 November)

Date Brightness Start Highest point End Pass type
(mag) Time Alt. Az. Time Alt. Az. Time Alt. Az.
16 Nov 9.7 17:49:01 10° W 17:58:16 52° SSW 18:07:14 10° SE visible
16 Nov 10.6 19:54:31 10° W 20:01:37 24° SW 20:08:37 10° S visible
17 Nov 9.7 17:27:22 10° W 17:36:39 54° SSW 17:45:41 10° SE visible
17 Nov 10.6 19:32:48 10° W 19:40:05 26° SW 19:47:15 10° S visible
18 Nov 9.8 17:05:42 10° W 17:15:04 55° SSW 17:24:09 10° SE visible
18 Nov 10.6 19:11:04 10° W 19:18:33 27° SW 19:25:54 10° S visible
19 Nov 10.6 18:49:22 10° W 18:57:01 28° SW 19:04:30 10° S visible
20 Nov 10.7 18:27:39 10° W 18:35:28 29° SW 18:43:07 10° SSE visible
21 Nov 10.7 18:05:57 10° W 18:13:55 30° SW 18:21:43 10° SSE visible
22 Nov 10.7 17:44:15 10° W 17:52:22 32° SW 18:00:17 10° SSE visible
23 Nov 10.7 17:22:33 10° W 17:30:49 33° SW 17:38:52 10° SSE visible
24 Nov 10.8 17:00:52 10° W 17:09:15 34° SW 17:17:26 10° SSE visible
24 Nov 11.7 19:11:33 10° WSW 19:11:44 10° WSW 19:11:56 10° WSW visible
25 Nov 11.7 18:48:01 10° WSW 18:50:14 11° WSW 18:52:26 10° SW visible
